Weather History for KPUB - November, 2012

Change the Weather History Date:

Monday, November 12, 2012

  Actual Average Record
Temperature  
Mean Temperature 31 °F 41 °F  
Max Temperature 53 °F 58 °F 82 °F (1989)
Min Temperature 9 °F 24 °F -8 °F (1940)
Degree Days  
Heating Degree Days 34 24  
Month to date heating degree days 229 259  
Since 1 July heating degree days 719 769  
Cooling Degree Days 0 0  
Month to date cooling degree days 0 0  
Year to date cooling degree days 1322 897  
Moisture  
Dew Point -2 °F    
Average Humidity 34    
Maximum Humidity 58    
Minimum Humidity 9    
Precipitation  
Precipitation 0.00 in 0.01 in 0.54 in (1909)
Month to date precipitation T 0.20  
Year to date precipitation 4.70 11.92  
Snow  
Snow 0.00 in 0.20 in 4.80 in (2014)
Month to date snowfall T 1.5  
Since 1 July snowfall 1.6 3.1  
Since 1 September snowfall 1.6 3.1  
Snow Depth 0.00 in    
Sea Level Pressure  
Sea Level Pressure 30.33 in    
Wind  
Wind Speed 7 mph (East)    
Max Wind Speed 22 mph    
Max Gust Speed 28 mph    
Visibility 10 miles    
Events      
T = Trace of Precipitation, MM = Missing Value Source: NWS Daily Summary

Daily Weather History Graph

Daily Weather History Graph

Search for Another Location

Airport or City:

Trip Planner

Search our weather history database for the weather conditions in past years. The results will help you decide how hot, cold, wet, or windy it might be!

Date:

Astronomy

Nov. 12, 2012 Rise Set
Actual Time 6:36 AM MST 4:47 PM MST
Civil Twilight 6:08 AM MST 5:15 PM MST
Nautical Twilight 5:36 AM MST 5:47 PM MST
Astronomical Twilight 5:05 AM MST 6:18 PM MST
Moon 5:05 AM MST (11/12) 3:54 PM MST (11/12)
Length of Visible Light 11h 06m
Length of Day
10h 10m
Waning Crescent, 2% of the Moon is Illuminated
Nov 12
Waning Crescent
Nov 13
New
Nov 20
First Quarter
Nov 28
Full
Dec 6
Last Quarter

Hourly Weather History & Observations

Time (MST) Temp. Windchill Dew Point Humidity Pressure Visibility Wind Dir Wind Speed Gust Speed Precip Events Conditions
12:53 AM 30.0 °F 17.5 °F -2.0 °F 25% 30.24 in 10.0 mi West 19.6 mph - N/A   Clear
1:53 AM 30.0 °F 19.5 °F -2.0 °F 25% 30.25 in 10.0 mi WNW 13.8 mph - N/A   Clear
2:53 AM 27.0 °F 16.1 °F -2.0 °F 29% 30.28 in 10.0 mi NW 12.7 mph - N/A   Clear
3:53 AM 18.0 °F 11.1 °F -0.9 °F 44% 30.34 in 10.0 mi East 4.6 mph - N/A   Clear
4:53 AM 14.0 °F - -0.0 °F 54% 30.39 in 10.0 mi Calm Calm - N/A   Clear
5:53 AM 10.9 °F 2.9 °F -2.9 °F 54% 30.41 in 10.0 mi West 4.6 mph - N/A   Clear
6:53 AM 10.0 °F - -4.0 °F 53% 30.45 in 10.0 mi Calm Calm - N/A   Clear
7:53 AM 19.0 °F - -0.0 °F 43% 30.44 in 10.0 mi Calm Calm - N/A   Clear
8:53 AM 27.0 °F - 1.9 °F 34% 30.42 in 10.0 mi Calm Calm - N/A   Clear
9:53 AM 32.0 °F - 1.9 °F 28% 30.39 in 10.0 mi Calm Calm - N/A   Clear
10:53 AM 37.9 °F - 1.0 °F 21% 30.35 in 10.0 mi Calm Calm - N/A   Clear
11:53 AM 44.1 °F 42.5 °F -0.0 °F 16% 30.31 in 10.0 mi Variable 3.5 mph - N/A   Clear
12:53 PM 48.9 °F - 1.0 °F 14% 30.26 in 10.0 mi ESE 9.2 mph - N/A   Clear
1:53 PM 52.0 °F - 1.0 °F 12% 30.24 in 10.0 mi SE 10.4 mph - N/A   Clear
2:53 PM 52.0 °F - -4.0 °F 10% 30.25 in 10.0 mi SE 13.8 mph - N/A   Clear
3:53 PM 51.1 °F - -7.1 °F 9% 30.27 in 10.0 mi SE 13.8 mph - N/A   Clear
4:53 PM 44.1 °F 39.5 °F -7.1 °F 12% 30.31 in 10.0 mi East 8.1 mph - N/A   Clear
5:53 PM 37.9 °F 30.9 °F -7.1 °F 15% 30.35 in 10.0 mi East 10.4 mph - N/A   Clear
6:53 PM 37.0 °F 30.4 °F -2.9 °F 18% 30.38 in 10.0 mi East 9.2 mph - N/A   Clear
7:53 PM 35.1 °F 27.9 °F -5.1 °F 18% 30.36 in 10.0 mi ENE 9.2 mph - N/A   Clear
8:53 PM 33.1 °F 30.0 °F -5.1 °F 19% 30.35 in 10.0 mi SE 3.5 mph - N/A   Clear
9:53 PM 27.0 °F 19.5 °F -6.0 °F 24% 30.33 in 10.0 mi North 6.9 mph - N/A   Clear
10:53 PM 26.1 °F 19.4 °F -2.9 °F 28% 30.31 in 10.0 mi WSW 5.8 mph - N/A   Clear
11:53 PM 28.0 °F 20.8 °F -5.1 °F 24% 30.26 in 10.0 mi North 6.9 mph - N/A   Clear